THOR ABLESTAR DEB, 558

Orbit data source: Space-Track

THOR ABLESTAR DEB, 558 is space debris in LEO originally from a launch on Thu, 29 Jun 1961 UTC launched from the Air Force Eastern Test Range (AFETR). Debris objects in space refer to the collection of defunct objects orbiting the Earth. Examples of debris include non-operational satellites, rocket bodies, and fragments generated from explosions, collisions, or faulty payload assembly.

Loading next visibility...
Identifier
558, 1961-015GQ
Orbit
LEO
Country
Flag of USUS
Related business
Manufacturer
Unknown
Mission
Spacecraft
Bus & Motor
Unknown
Mass
Unknown
Launch date (UTC)
1961-06-29 (64 years ago)
Launch vehicle
Unknown
Launch site
Air Force Eastern Test Range (AFETR)
Object type
Payload
Rocket body
Debris
Shape & HBR
Unknown shape, 0.2 m
Radar Cross Section
Small (<0.1 m²)

Expand to show TLE details & history
Last TLE update: 1 day ago

TLE from 1 day ago
0 THOR ABLESTAR DEB
1 00558U 61015GQ  25297.36121581  .00000066  00000-0  31958-3 0  9994
2 00558  65.6977 300.9299 0476303 194.7632 274.7620 12.86462262 19228
Epoch: 2025-10-24T08:40Z
TLE epoch observation values (Epoch: 2025-10-24T08:40:09.045Z)
Latitude
62.24649°
Longitude
-100.75008°
Altitude
1,312.356 km
Speed
7.213 km/s
True Right ascension
04h 09m 10s
True Declination
62° 06' 53"
Sunlit
Object was in full shadow at epoch
Visualization orbit readout
Latitude
Unknown
Longitude
Unknown
Altitude
Unknown
Speed
Unknown
Apparent Right ascension
Unknown
Apparent Declination
Unknown
Sunlit
N/A
Visualization observer readout
Local Sidereal Time
03:35:56
Azimuth
Unknown
Elevation
Unknown
Doppler factor
Unknown
Orbital elements
Apogee altitude
1,680.577 km
Perigee altitude
947.801 km
Semi-major axis
7,692.326 km
Eccentricity
0.04763
Inclination
65.6977°
RAAN
300.9299°
Arg. of periapsis
194.7632°
True anomaly
269.30407°
Mean anomaly
274.762°
Eccentric anomaly
272.03471°
Mean motion
3.21704 °/min
Orbital period
111.9 mins
BSTAR
0.00031958
Loading maneuver chart data...
Computing Atmospheric mass density...

Documentation

Showing up to 5 results
|